Time_in_sec,gx,gy,gz
1323445087.00055552,0.00440586,-0.01136139,-0.99992575
1323445087.04961014,0.00393728,-0.01120212,-0.99992950
1323445087.10059237,0.00375697,-0.01121219,-0.99993008
1323445087.15392923,0.00369691,-0.01118486,-0.99993061
1323445087.19253898,0.00373339,-0.01144197,-0.99992757
1323445087.25250936,0.00366668,-0.01151272,-0.99992700
1323445087.30053997,0.00373038,-0.01111697,-0.99993125
1323445087.34996367,0.00360281,-0.01104626,-0.99993250
1323445087.40155506,0.00350411,-0.01096239,-0.99993377
1323445087.44064403,0.00351062,-0.01090397,-0.99993439
1323445087.50428796,0.00334896,-0.01103475,-0.99993351
1323445087.54969788,0.00351897,-0.01117860,-0.99993133
1323445087.60156059,0.00355324,-0.01120739,-0.99993088
1323445087.65253425,0.00343451,-0.01132859,-0.99992993
1323445087.68957067,0.00343152,-0.01123484,-0.99993100
1323445087.74968219,0.00336985,-0.01132154,-0.99993023
1323445087.80055547,0.00392979,-0.01122293,-0.99992930
1323445087.84870052,0.00400359,-0.01117554,-0.99992954
1323445087.90167212,0.00399319,-0.01100581,-0.99993146
1323445087.94965386,0.00396125,-0.01110664,-0.99993047
1323445088.00160575,0.00403337,-0.01113724,-0.99992984
1323445088.05253577,0.00356323,-0.01087783,-0.99993449
1323445088.10057807,0.00358170,-0.01089769,-0.99993420
1323445088.14952779,0.00381584,-0.01082747,-0.99993410
1323445088.18851471,0.00381533,-0.01093733,-0.99993291
1323445088.24969602,0.00395319,-0.01109495,-0.99993063
1323445088.29853010,0.00371090,-0.01084623,-0.99993429
1323445088.34851480,0.00386006,-0.01075725,-0.99993469
1323445088.40148497,0.00391238,-0.01082246,-0.99993378
1323445088.44070435,0.00379776,-0.01072936,-0.99993523
1323445088.50149179,0.00348291,-0.01074726,-0.99993618
1323445088.55038381,0.00314904,-0.01022463,-0.99994277
1323445088.60150671,0.00299507,-0.01041299,-0.99994130
1323445088.64951777,0.00292065,-0.01052256,-0.99994037
1323445088.68963528,0.00300531,-0.01068802,-0.99993837
1323445088.75037766,0.00306427,-0.01077252,-0.99993728
1323445088.80155039,0.00294258,-0.01051886,-0.99994035
1323445088.85263443,0.00308610,-0.01053859,-0.99993971
1323445088.90165210,0.00337735,-0.01038305,-0.99994039
1323445088.94153619,0.00357357,-0.01033198,-0.99994024
1323445089.00055289,0.00363512,-0.01046806,-0.99993860
1323445089.04954290,0.00335390,-0.00998003,-0.99994457
1323445089.09824085,0.00338530,-0.01017846,-0.99994247
1323445089.15258551,0.00344856,-0.01022415,-0.99994179
1323445089.18964934,0.00342486,-0.01008234,-0.99994331
1323445089.24856114,0.00307421,-0.01030317,-0.99994220
1323445089.30165052,0.00224737,-0.00999812,-0.99994749
1323445089.34986925,0.00237175,-0.01011641,-0.99994602
1323445089.40164542,0.00245113,-0.01021762,-0.99994479
1323445089.44965100,0.00246778,-0.01007917,-0.99994616
1323445089.50213170,0.00245977,-0.00994008,-0.99994757
1323445089.54965472,0.00223524,-0.00963410,-0.99995109
1323445089.60063124,0.00209675,-0.00961332,-0.99995159
1323445089.64209294,0.00204428,-0.00948942,-0.99995288
1323445089.69365048,0.00208054,-0.00956913,-0.99995205
1323445089.74998140,0.00212869,-0.00946247,-0.99995296
1323445089.80165052,0.00174225,-0.00873490,-0.99996033
1323445089.84964943,0.00176550,-0.00878664,-0.99995984
1323445089.90198159,0.00175852,-0.00894827,-0.99995842
1323445089.94165373,0.00171137,-0.00891669,-0.99995878
1323445090.00068140,0.00153114,-0.00901053,-0.99995823
1323445090.05249119,0.00167150,-0.00860577,-0.99996157
1323445090.10185909,0.00145557,-0.00865033,-0.99996153
1323445090.14982533,0.00144332,-0.00872851,-0.99996086
1323445090.18953109,0.00108443,-0.00877603,-0.99996090
1323445090.25365138,0.00103471,-0.00874685,-0.99996121
1323445090.29982519,0.00167319,-0.00823643,-0.99996468
1323445090.34965181,0.00148912,-0.00810387,-0.99996605
1323445090.40052485,0.00129909,-0.00780925,-0.99996866
1323445090.44274640,0.00160504,-0.00777728,-0.99996847
1323445090.50155711,0.00163821,-0.00776937,-0.99996848
1323445090.54982710,0.00158289,-0.00734859,-0.99997175
1323445090.60165358,0.00159460,-0.00711431,-0.99997342
1323445090.65360641,0.00146055,-0.00726033,-0.99997258
1323445090.68967319,0.00158526,-0.00715210,-0.99997317
1323445090.74968863,0.00154505,-0.00692581,-0.99997482
1323445090.80055308,0.00134296,-0.00684060,-0.99997570
1323445090.85260653,0.00143629,-0.00698644,-0.99997456
1323445090.90063334,0.00147773,-0.00681088,-0.99997571
1323445090.94159222,0.00162860,-0.00689074,-0.99997493
1323445091.00158358,0.00150334,-0.00676289,-0.99997600
1323445091.04964423,0.00146372,-0.00734115,-0.99997198
1323445091.10452604,0.00157750,-0.00711227,-0.99997346
1323445091.14963245,0.00154103,-0.00703011,-0.99997410
1323445091.18963790,0.00145201,-0.00687694,-0.99997530
1323445091.24852967,0.00136337,-0.00680305,-0.99997593
1323445091.30152988,0.00094783,-0.00693569,-0.99997550
1323445091.35041022,0.00095199,-0.00675448,-0.99997674
1323445091.40051150,0.00111732,-0.00651160,-0.99997818
1323445091.43854070,0.00087336,-0.00661469,-0.99997774
1323445091.50047612,0.00097282,-0.00656560,-0.99997797
1323445091.54952550,0.00166292,-0.00670995,-0.99997611
1323445091.60056686,0.00160246,-0.00683164,-0.99997538
1323445091.64860559,0.00170775,-0.00672857,-0.99997590
1323445091.68955278,0.00162728,-0.00652264,-0.99997740
1323445091.75039291,0.00142535,-0.00620781,-0.99997972
1323445091.80142140,0.00157883,-0.00671169,-0.99997623
1323445091.84965920,0.00165832,-0.00678303,-0.99997562
1323445091.90230799,0.00154610,-0.00674970,-0.99997603
1323445091.94148469,0.00169058,-0.00688250,-0.99997489
1323445092.00152946,0.00155701,-0.00694297,-0.99997469
1323445092.04971719,0.00185716,-0.00694159,-0.99997418
1323445092.10170174,0.00185694,-0.00711649,-0.99997295
1323445092.15027237,0.00191246,-0.00723791,-0.99997198
1323445092.18956494,0.00185203,-0.00721033,-0.99997229
1323445092.25363898,0.00183833,-0.00724289,-0.99997208
1323445092.30470324,0.00189836,-0.00743084,-0.99997059
1323445092.35365224,0.00191158,-0.00739419,-0.99997084
1323445092.40054154,0.00200718,-0.00739113,-0.99997067
1323445092.45253420,0.00200869,-0.00731110,-0.99997126
1323445092.50053239,0.00204336,-0.00742524,-0.99997034
1323445092.55012393,0.00182164,-0.00764651,-0.99996911
1323445092.60051894,0.00182609,-0.00761629,-0.99996933
1323445092.65366197,0.00181162,-0.00766838,-0.99996896
1323445092.69000173,0.00162210,-0.00770525,-0.99996900
1323445092.74951982,0.00163193,-0.00779979,-0.99996825
1323445092.80165482,0.00225421,-0.00823348,-0.99996356
1323445092.85252523,0.00235061,-0.00824235,-0.99996327
1323445092.90166187,0.00233768,-0.00827161,-0.99996306
1323445092.95404911,0.00249011,-0.00809725,-0.99996412
1323445093.00058079,0.00218802,-0.00824781,-0.99996359
1323445093.04966140,0.00258544,-0.00854091,-0.99996018
1323445093.09885263,0.00233511,-0.00844481,-0.99996162
1323445093.14988303,0.00229337,-0.00825537,-0.99996329
1323445093.18960547,0.00212724,-0.00793389,-0.99996626
1323445093.25251245,0.00215377,-0.00772821,-0.99996782
1323445093.30052590,0.00193366,-0.00750521,-0.99996997
1323445093.34985709,0.00209226,-0.00749440,-0.99996973
1323445093.40050268,0.00186237,-0.00744931,-0.99997052
1323445093.44156313,0.00193759,-0.00754935,-0.99996963
1323445093.50052452,0.00185970,-0.00755877,-0.99996970
1323445093.54971027,0.00229634,-0.00785450,-0.99996652
1323445093.60048223,0.00226206,-0.00796429,-0.99996573
1323445093.65280533,0.00209336,-0.00801519,-0.99996569
1323445093.70152640,0.00187041,-0.00782740,-0.99996762
1323445093.74968839,0.00189359,-0.00783989,-0.99996747
1323445093.80050802,0.00186858,-0.00809985,-0.99996545
1323445093.84870625,0.00183511,-0.00827474,-0.99996408
1323445093.90299416,0.00195325,-0.00821795,-0.99996432
1323445093.94159532,0.00182996,-0.00817872,-0.99996488
1323445094.00053000,0.00191005,-0.00816217,-0.99996486
1323445094.05253100,0.00189279,-0.00904867,-0.99995727
1323445094.10055399,0.00185878,-0.00897572,-0.99995799
1323445094.14956117,0.00193097,-0.00877634,-0.99995962
1323445094.20157218,0.00195526,-0.00890426,-0.99995844
1323445094.24861503,0.00196838,-0.00902799,-0.99995731
1323445094.29842806,0.00195248,-0.00884817,-0.99995895
1323445094.35059714,0.00174964,-0.00863577,-0.99996118
1323445094.40157390,0.00208834,-0.00873708,-0.99995965
1323445094.44851065,0.00221611,-0.00876184,-0.99995916
1323445094.50157022,0.00209018,-0.00865652,-0.99996035
1323445094.54960179,0.00189424,-0.00859162,-0.99996130
1323445094.60156488,0.00197119,-0.00844141,-0.99996243
1323445094.64856482,0.00197729,-0.00836389,-0.99996307
1323445094.69035029,0.00189837,-0.00824427,-0.99996421
1323445094.74965692,0.00191106,-0.00815935,-0.99996489
1323445094.80164456,0.00177748,-0.00884264,-0.99995932
1323445094.84851575,0.00191923,-0.00891036,-0.99995846
1323445094.90166116,0.00176267,-0.00885961,-0.99995920
1323445094.94850659,0.00184601,-0.00888829,-0.99995879
1323445095.00051403,0.00190009,-0.00888605,-0.99995871
1323445095.04970598,0.00210875,-0.00921683,-0.99995530
1323445095.09916258,0.00197797,-0.00926342,-0.99995514
1323445095.15368247,0.00201607,-0.00923107,-0.99995536
1323445095.19365931,0.00178501,-0.00911199,-0.99995689
1323445095.25259089,0.00183349,-0.00906291,-0.99995725
1323445095.30051970,0.00264317,-0.00895359,-0.99995642
1323445095.35002518,0.00260181,-0.00899267,-0.99995618
1323445095.40166426,0.00264378,-0.00892871,-0.99995664
1323445095.44166541,0.00254728,-0.00883298,-0.99995774
1323445095.50171232,0.00238457,-0.00886315,-0.99995788
1323445095.54968238,0.00234909,-0.00896058,-0.99995709
1323445095.60068345,0.00226006,-0.00896245,-0.99995728
1323445095.65250111,0.00224244,-0.00916412,-0.99995549
1323445095.69364810,0.00240802,-0.00913696,-0.99995536
1323445095.74979138,0.00249552,-0.00919312,-0.99995463
1323445095.80165553,0.00262466,-0.00906316,-0.99995548
1323445095.85254836,0.00262241,-0.00923184,-0.99995395
1323445095.90393972,0.00273968,-0.00909954,-0.99995485
1323445095.95365548,0.00257143,-0.00917585,-0.99995459
1323445096.00157332,0.00249975,-0.00910661,-0.99995541
1323445096.05249453,0.00263625,-0.00903140,-0.99995574
1323445096.10169530,0.00256271,-0.00922262,-0.99995419
1323445096.14988351,0.00241087,-0.00917999,-0.99995496
1323445096.19254613,0.00244023,-0.00896029,-0.99995688
1323445096.25263786,0.00228357,-0.00893166,-0.99995750
1323445096.30052185,0.00190977,-0.00839398,-0.99996295
1323445096.35264969,0.00183567,-0.00830039,-0.99996387
1323445096.40072060,0.00179303,-0.00821951,-0.99996461
1323445096.45271134,0.00193180,-0.00821303,-0.99996441
1323445096.50154114,0.00189634,-0.00816466,-0.99996487
1323445096.54955149,0.00188561,-0.00813868,-0.99996510
1323445096.60157371,0.00194638,-0.00811621,-0.99996517
1323445096.65357399,0.00169549,-0.00818223,-0.99996509
1323445096.68961787,0.00173034,-0.00824280,-0.99996453
1323445096.74962974,0.00172576,-0.00846020,-0.99996272
1323445096.80167651,0.00231459,-0.00840729,-0.99996198
1323445096.85259080,0.00240289,-0.00849061,-0.99996107
1323445096.90168452,0.00245830,-0.00842839,-0.99996146
1323445096.94053006,0.00258671,-0.00870311,-0.99995878
1323445097.00068593,0.00250952,-0.00879151,-0.99995820
1323445097.05256891,0.00281362,-0.00850510,-0.99995987
1323445097.10157871,0.00288717,-0.00864431,-0.99995847
1323445097.14859653,0.00270763,-0.00872169,-0.99995830
1323445097.18964314,0.00252589,-0.00859647,-0.99995986
1323445097.24170613,0.00249467,-0.00838596,-0.99996173
1323445097.30159998,0.00228802,-0.00808452,-0.99996470
1323445097.34989619,0.00212642,-0.00811739,-0.99996479
1323445097.40064216,0.00215615,-0.00813271,-0.99996460
1323445097.44152665,0.00221878,-0.00831630,-0.99996296
1323445097.50210071,0.00219539,-0.00840615,-0.99996226
1323445097.54964495,0.00263717,-0.00795047,-0.99996492
1323445097.60168695,0.00265966,-0.00792025,-0.99996510
1323445097.64852309,0.00261752,-0.00787440,-0.99996557
1323445097.70167494,0.00283988,-0.00793008,-0.99996452
1323445097.75065207,0.00273288,-0.00814479,-0.99996310
1323445097.80163884,0.00266380,-0.00770662,-0.99996676
1323445097.84964848,0.00271451,-0.00780697,-0.99996584
1323445097.89882898,0.00270693,-0.00788799,-0.99996523
1323445097.94853139,0.00260339,-0.00799147,-0.99996468
1323445098.00164342,0.00255802,-0.00814307,-0.99996357
1323445098.05019617,0.00242433,-0.00819119,-0.99996351
1323445098.10167623,0.00250036,-0.00815632,-0.99996361
1323445098.15020418,0.00236858,-0.00809808,-0.99996440
1323445098.20065331,0.00233937,-0.00803073,-0.99996502
1323445098.24965763,0.00202784,-0.00830477,-0.99996346
1323445098.30220437,0.00214002,-0.00831131,-0.99996317
1323445098.35350275,0.00201736,-0.00826124,-0.99996384
1323445098.40148187,0.00168177,-0.00815830,-0.99996531
1323445098.45253992,0.00174075,-0.00820204,-0.99996485
1323445098.50151825,0.00186286,-0.00817146,-0.99996488
1323445098.54992294,0.00076068,-0.00776334,-0.99996958
1323445098.60151052,0.00064862,-0.00789047,-0.99996866
1323445098.64951754,0.00070853,-0.00784363,-0.99996899
1323445098.69004893,0.00100974,-0.00781778,-0.99996893
1323445098.75356293,0.00103040,-0.00785041,-0.99996865
1323445098.80150700,0.00029938,-0.00698212,-0.99997558
1323445098.85255790,0.00023390,-0.00673567,-0.99997729
1323445098.90052986,0.00024934,-0.00690633,-0.99997612
1323445098.95252419,0.00046854,-0.00667190,-0.99997763
1323445099.00154352,0.00055287,-0.00690647,-0.99997600
1323445099.05263996,0.00074606,-0.00752925,-0.99997138
1323445099.10192275,0.00065000,-0.00749529,-0.99997170
1323445099.15250874,0.00053261,-0.00755305,-0.99997133
1323445099.20458484,0.00051070,-0.00740248,-0.99997247
1323445099.25252128,0.00067747,-0.00751191,-0.99997156
1323445099.30159569,0.00017577,-0.00780707,-0.99996951
1323445099.34981632,0.00024741,-0.00777184,-0.99996977
1323445099.40166330,0.00035992,-0.00761075,-0.99997097
1323445099.45365405,0.00031367,-0.00763534,-0.99997080
1323445099.50183392,0.00049906,-0.00803969,-0.99996756
1323445099.55252528,0.00003658,-0.00914419,-0.99995819
1323445099.60160589,-0.00003546,-0.00924856,-0.99995723
1323445099.65254188,0.00016255,-0.00913930,-0.99995822
1323445099.70170569,-0.00000498,-0.00930181,-0.99995674
1323445099.74963808,-0.00021025,-0.00915472,-0.99995807
1323445099.80169034,-0.00006498,-0.00934737,-0.99995631
1323445099.85264897,-0.00003555,-0.00934589,-0.99995633
1323445099.89962983,0.00004107,-0.00936976,-0.99995610
1323445099.94953465,-0.00008309,-0.00920481,-0.99995763
1323445100.00164485,0.00001376,-0.00952967,-0.99995459
1323445100.04852843,-0.00015004,-0.00880156,-0.99996125
1323445100.10154510,-0.00012864,-0.00848206,-0.99996402
1323445100.14950490,0.00004550,-0.00847264,-0.99996411
1323445100.20162582,-0.00008962,-0.00857132,-0.99996326
1323445100.24961448,-0.00002387,-0.00883440,-0.99996098
1323445100.30178213,-0.00065890,-0.00847236,-0.99996389
1323445100.34962726,-0.00071056,-0.00842807,-0.99996423
1323445100.40162182,-0.00071020,-0.00841474,-0.99996434
1323445100.45262122,-0.00092854,-0.00823378,-0.99996567
1323445100.50161076,-0.00144831,-0.00826171,-0.99996482
1323445100.55037856,-0.00173352,-0.00829627,-0.99996408
1323445100.60051107,-0.00176746,-0.00823630,-0.99996452
1323445100.64965868,-0.00182427,-0.00810099,-0.99996552
1323445100.69841647,-0.00204799,-0.00805802,-0.99996544
1323445100.74854469,-0.00130956,-0.00791879,-0.99996779
1323445100.80052447,-0.00128913,-0.00773946,-0.99996922
1323445100.84851575,-0.00161652,-0.00780265,-0.99996825
1323445100.90165520,-0.00176143,-0.00776104,-0.99996833
1323445100.94855189,-0.00184540,-0.00779385,-0.99996792
1323445101.01021981,-0.00198538,-0.00713005,-0.99997261
1323445101.04965186,-0.00213236,-0.00689080,-0.99997398
1323445101.10221577,-0.00204653,-0.00681178,-0.99997471
1323445101.14955425,-0.00194940,-0.00695356,-0.99997392
1323445101.20153379,-0.00180921,-0.00704140,-0.99997357
1323445101.25254560,-0.00168058,-0.00659327,-0.99997685
1323445101.30082345,-0.00195804,-0.00634972,-0.99997792
1323445101.35008645,-0.00209399,-0.00635757,-0.99997760
1323445101.40125036,-0.00233046,-0.00649450,-0.99997619
1323445101.44966054,-0.00227657,-0.00677376,-0.99997447
1323445101.50209713,-0.00250036,-0.00636487,-0.99997662
1323445101.54965615,-0.00253414,-0.00608819,-0.99997826
1323445101.60153580,-0.00264788,-0.00613207,-0.99997769
1323445101.64998364,-0.00265688,-0.00597570,-0.99997862
1323445101.70154905,-0.00270941,-0.00602799,-0.99997816
1323445101.75252581,-0.00243194,-0.00567610,-0.99998093
1323445101.80182719,-0.00241016,-0.00536401,-0.99998271
1323445101.85365152,-0.00274838,-0.00544848,-0.99998138
1323445101.90195918,-0.00276389,-0.00504191,-0.99998347
1323445101.95249820,-0.00263243,-0.00491586,-0.99998445
1323445102.00198150,-0.00206843,-0.00529722,-0.99998383
1323445102.04061818,-0.00211817,-0.00523511,-0.99998405
1323445102.10051847,-0.00223681,-0.00517688,-0.99998410
1323445102.14979219,-0.00236058,-0.00510040,-0.99998421
1323445102.20058203,-0.00242276,-0.00515651,-0.99998377
1323445102.24967551,-0.00226386,-0.00521181,-0.99998386
1323445102.30180621,-0.00168934,-0.00622250,-0.99997921
1323445102.34953117,-0.00170849,-0.00607496,-0.99998009
1323445102.40064454,-0.00202747,-0.00607676,-0.99997948
1323445102.45253229,-0.00213661,-0.00603087,-0.99997953
1323445102.50064206,-0.00054466,-0.00735667,-0.99997279
1323445102.54948902,-0.00055169,-0.00745191,-0.99997208
1323445102.60052896,-0.00061981,-0.00772321,-0.99996998
1323445102.64974141,-0.00077882,-0.00760546,-0.99997077
1323445102.69867492,-0.00086495,-0.00787294,-0.99996863
1323445102.74965191,-0.00104562,-0.00805305,-0.99996703
1323445102.80054808,-0.00128234,-0.00819977,-0.99996556
1323445102.85249090,-0.00135027,-0.00829319,-0.99996470
1323445102.90053749,-0.00144612,-0.00823833,-0.99996502
1323445102.94850302,-0.00147926,-0.00843288,-0.99996335
1323445103.00164151,-0.00102353,-0.00870926,-0.99996155
1323445103.04964685,-0.00092310,-0.00863184,-0.99996232
1323445103.10154295,-0.00081599,-0.00880303,-0.99996092
1323445103.14963675,-0.00069312,-0.00895946,-0.99995962
1323445103.20163441,-0.00063570,-0.00885107,-0.99996063
1323445103.23963976,0.00016934,-0.00844324,-0.99996434
1323445103.30060625,0.00008345,-0.00856985,-0.99996327
1323445103.35037971,0.00012222,-0.00854812,-0.99996346
1323445103.40156627,0.00023288,-0.00884189,-0.99996088
1323445103.44949937,0.00022799,-0.00896986,-0.99995974
1323445103.49836922,0.00025189,-0.00917778,-0.99995785
1323445103.54950476,0.00107529,-0.00961654,-0.99995318
1323445103.60052681,0.00088712,-0.00951015,-0.99995438
1323445103.65039802,0.00082939,-0.00948269,-0.99995469
1323445103.70051479,0.00091551,-0.00953868,-0.99995409
1323445103.75036764,0.00053721,-0.00824168,-0.99996589
1323445103.80057025,0.00038910,-0.00850508,-0.99996376
1323445103.84965205,0.00037372,-0.00847970,-0.99996398
1323445103.90463591,0.00038164,-0.00855498,-0.99996333
1323445103.94851446,0.00019733,-0.00835188,-0.99996510
1323445104.00050664,0.00006496,-0.00822616,-0.99996616
1323445104.05254245,-0.00030470,-0.00749114,-0.99997189
1323445104.10103464,-0.00022629,-0.00741564,-0.99997248
1323445104.14968586,-0.00035261,-0.00727122,-0.99997350
1323445104.20156479,-0.00054682,-0.00725128,-0.99997356
1323445104.24965715,-0.00056356,-0.00739384,-0.99997251
1323445104.30172038,-0.00002335,-0.00777980,-0.99996974
1323445104.34966207,0.00017409,-0.00760069,-0.99997110
1323445104.40053511,0.00008660,-0.00773492,-0.99997008
1323445104.44953132,-0.00009193,-0.00765882,-0.99997067
1323445104.50064158,-0.00009920,-0.00778596,-0.99996968
1323445104.54995799,-0.00005721,-0.00733811,-0.99997307
1323445104.60063505,-0.00012485,-0.00719187,-0.99997413
1323445104.65254712,-0.00001922,-0.00718927,-0.99997416
1323445104.69898438,-0.00009879,-0.00720507,-0.99997404
1323445104.74955821,0.00097269,-0.00838591,-0.99996436
1323445104.80089951,0.00094141,-0.00833216,-0.99996484
1323445104.85248971,0.00082832,-0.00813500,-0.99996657
1323445104.90169191,0.00095170,-0.00810162,-0.99996673
